Voltar ao catálogo

PAYLOAD A

AtivoMilitarSSO
NORAD 39208·PAYLOAD·🇨🇳 China

Lançado Jul 19, 2013 de Taiyuan Satellite Launch Center

Loading…

Próximas Passagens (próximas 24 horas)

TLE

AtualizadoSource: Space-Track

Época: Sep 14, 2026, 11:23 UTC

1 39208U 13037A   26257.47480091  .00000358  00000-0  64599-4 0  9994
2 39208  98.0936 260.3085 0006937 213.7739 146.3027 14.72370165705348

Acompanhe PAYLOAD A em tempo real com AllMySat

Download on the App Store